TimeCST,TemperatureF,Dew PointF,Humidity,Sea Level PressureIn,VisibilityMPH,Wind Direction,Wind SpeedMPH,Gust SpeedMPH,PrecipitationIn,Events,Conditions,WindDirDegrees,DateUTC
12:52 AM,15.1,9.0,77,30.14,10.0,WNW,15.0,-,0.00,,Overcast,290,2013-12-15 06:52:00
1:26 AM,15.8,8.6,73,30.10,10.0,WNW,13.8,21.9,N/A,,Scattered Clouds,300,2013-12-15 07:26:00
1:52 AM,14.0,7.0,74,30.14,10.0,WNW,11.5,20.7,N/A,,Clear,300,2013-12-15 07:52:00
2:52 AM,12.9,5.0,71,30.14,10.0,WNW,13.8,-,N/A,,Clear,300,2013-12-15 08:52:00
3:52 AM,10.0,1.0,67,30.15,10.0,NW,11.5,-,N/A,,Clear,310,2013-12-15 09:52:00
4:52 AM,9.0,1.0,70,30.16,10.0,WNW,13.8,-,N/A,,Partly Cloudy,300,2013-12-15 10:52:00
5:52 AM,10.0,1.0,67,30.15,10.0,NW,9.2,-,N/A,,Overcast,310,2013-12-15 11:52:00
6:52 AM,10.0,1.0,67,30.17,10.0,WNW,11.5,-,N/A,,Overcast,300,2013-12-15 12:52:00
7:52 AM,10.0,1.9,70,30.17,10.0,WNW,9.2,-,N/A,,Overcast,300,2013-12-15 13:52:00
8:52 AM,10.9,1.9,67,30.18,10.0,NW,8.1,-,N/A,,Overcast,310,2013-12-15 14:52:00
9:52 AM,12.0,3.0,67,30.18,10.0,West,8.1,-,N/A,,Overcast,260,2013-12-15 15:52:00
10:52 AM,12.9,3.9,67,30.19,10.0,WNW,9.2,-,N/A,,Overcast,290,2013-12-15 16:52:00
11:52 AM,14.0,5.0,67,30.16,10.0,NW,6.9,-,N/A,,Overcast,320,2013-12-15 17:52:00
12:52 PM,14.0,3.9,64,30.14,10.0,WNW,5.8,-,N/A,,Overcast,300,2013-12-15 18:52:00
1:52 PM,15.1,5.0,64,30.14,10.0,NW,6.9,-,N/A,,Overcast,320,2013-12-15 19:52:00
2:52 PM,15.1,5.0,64,30.14,10.0,WNW,5.8,-,N/A,,Overcast,290,2013-12-15 20:52:00
3:52 PM,15.1,5.0,64,30.15,10.0,NW,5.8,-,N/A,,Overcast,320,2013-12-15 21:52:00
4:52 PM,15.1,6.1,68,30.15,10.0,North,5.8,-,N/A,,Overcast,350,2013-12-15 22:52:00
5:52 PM,14.0,6.1,71,30.15,8.0,NNW,5.8,-,0.00,Snow,Light Snow,330,2013-12-15 23:52:00
6:52 PM,14.0,8.1,77,30.16,4.0,North,5.8,-,0.00,Snow,Light Snow,360,2013-12-16 00:52:00
7:06 PM,14.0,8.6,79,30.12,1.8,North,4.6,-,0.00,Snow,Light Snow,10,2013-12-16 01:06:00
7:13 PM,14.0,8.6,79,30.12,2.5,North,3.5,-,0.00,Snow,Light Snow,10,2013-12-16 01:13:00
7:29 PM,14.0,8.6,79,30.12,1.8,Calm,Calm,-,0.00,Snow,Light Snow,0,2013-12-16 01:29:00
7:41 PM,14.0,8.6,79,30.12,2.0,ENE,3.5,-,0.00,Snow,Light Snow,70,2013-12-16 01:41:00
7:52 PM,14.0,9.0,80,30.17,2.5,ENE,4.6,-,0.00,Snow,Light Snow,60,2013-12-16 01:52:00
8:01 PM,14.0,8.6,79,30.12,3.0,ENE,4.6,-,0.00,Snow,Light Snow,70,2013-12-16 02:01:00
8:17 PM,14.0,8.6,79,30.12,2.0,ENE,3.5,-,0.01,Snow,Light Snow,60,2013-12-16 02:17:00
8:21 PM,14.0,10.4,86,30.12,1.8,NE,3.5,-,0.01,Snow,Light Snow,50,2013-12-16 02:21:00
8:52 PM,12.9,9.0,84,30.18,1.8,NE,3.5,-,0.01,Snow,Light Snow,50,2013-12-16 02:52:00
9:15 PM,12.2,8.6,85,30.14,2.5,Calm,Calm,-,0.01,Snow,Light Snow,0,2013-12-16 03:15:00
9:29 PM,14.0,10.4,86,30.13,4.0,Calm,Calm,-,0.01,Snow,Light Snow,0,2013-12-16 03:29:00
9:52 PM,14.0,9.0,80,30.17,5.0,ENE,3.5,-,0.01,Snow,Light Snow,60,2013-12-16 03:52:00
10:10 PM,12.2,8.6,85,30.13,1.8,ENE,4.6,-,0.00,Snow,Light Snow,60,2013-12-16 04:10:00
10:31 PM,12.2,8.6,85,30.12,2.0,ENE,3.5,-,0.01,Snow,Light Snow,60,2013-12-16 04:31:00
10:44 PM,12.2,8.6,85,30.11,2.5,ENE,5.8,-,0.01,Snow,Light Snow,70,2013-12-16 04:44:00
10:52 PM,12.9,9.0,84,30.16,3.0,ENE,5.8,-,0.01,Snow,Light Snow,60,2013-12-16 04:52:00
11:52 PM,12.9,8.1,81,30.15,2.5,ENE,6.9,-,0.00,Snow,Light Snow,60,2013-12-16 05:52:00